Location: Feigenhofen
(48.4939°N, 10.7793°E)
Time: 22:20:02
(UTC+00:00)

Meteor 1-24 Rocket - Pass Details

Date: 26 May 2022
Orbit: 789 x 928 km, 81.3° (Epoch: 24 June)

Event Time Altitude Azimuth Distance (km) Brightness Sun altitude
Exits shadow 00:35:01 22° 160° (SSE) 1,772 4.9 -18.1°
Maximum altitude 00:38:24 50° 95° (E) 1,061 4.3 -17.9°
Drops below altitude 10° 00:43:38 10° 21° (NNE) 2,418 7.4 -17.6°
Sets 00:46:04 0° 16° (NNE) 3,338 8.5 -17.4°
